Location: Bacea
(45.9500°N, 22.6667°E)
Time: 07:26:38
(UTC+00:00)

Cosmos 1300 - Pass Details

Date: 02 June 2022
Orbit: 506 x 508 km, 82.5° (Epoch: 06 July)

Event Time Altitude Azimuth Distance (km) Brightness Sun altitude
Rises 22:36:12 0° 348° (NNW) 2,623 7.7 -21.7°
Reaches altitude 10° 22:38:21 10° 346° (NNW) 1,732 6.4 -21.7°
Enters shadow 22:42:04 66° 268° (W) 558 2.7 -21.7°
